1517299200.01,41317,9.81,72916.0,-12.29,-14.61,-14.97,0,*61
1517299201.29,41318,9.81,72904.3,-12.27,-15.01,-15.35,0,*6E
1517299202.51,41319,9.81,72900.3,-12.29,-14.89,-15.15,0,*62
1517299203.73,41320,9.81,72910.8,-12.29,-14.89,-15.07,0,*6B
1517299204.99,41321,9.81,72912.8,-12.27,-14.89,-15.01,0,*62
1517299206.25,41322,9.75,72912.8,-12.27,-15.07,-15.21,0,*64
1517299207.5,41323,9.81,72916.0,-12.27,-15.15,-15.07,0,*62
1517299208.79,41324,9.81,72916.5,-12.27,-15.43,-15.21,0,*62
1517299210.07,41325,9.75,72914.5,-12.27,-15.35,-15.01,0,*60
1517299211.31,41326,9.81,72912.5,-12.27,-15.07,-14.89,0,*63
1517299212.6,41327,9.81,72920.5,-12.27,-14.97,-14.75,0,*69
1517299213.83,41328,9.81,72916.8,-12.29,-15.01,-14.89,0,*65
1517299215.05,41329,9.81,72902.3,-12.29,-14.89,-14.61,0,*63
1517299216.32,41330,9.75,72894.3,-12.27,-14.43,-14.15,0,*60
1517299217.61,41331,9.81,72898.3,-12.27,-14.43,-14.01,0,*64
1517299218.87,41332,9.81,72890.5,-12.23,-14.11,-13.83,0,*69
1517299220.13,41333,9.81,72898.3,-12.23,-13.79,-13.43,0,*6D
1517299221.4,41334,9.81,72890.8,-12.23,-14.23,-14.05,0,*67
1517299222.64,41335,9.81,72890.0,-12.23,-13.69,-13.51,0,*69
1517299223.9,41336,9.81,72886.5,-12.23,-13.37,-13.15,0,*61
1517299225.13,41337,9.81,72890.3,-12.23,-13.15,-13.07,0,*63
1517299226.37,41338,9.81,72884.0,-12.23,-13.23,-13.11,0,*6E
1517299227.61,41339,9.81,72894.8,-12.19,-13.23,-13.11,0,*66
1517299228.83,41340,9.81,72908.3,-12.21,-13.07,-12.93,0,*6E
1517299230.09,41341,9.81,72902.5,-12.19,-13.01,-12.89,0,*69
1517299231.34,41342,9.81,72902.3,-12.19,-13.23,-13.23,0,*6B
1517299232.63,41343,9.81,72886.5,-12.19,-13.37,-13.33,0,*6E
1517299233.89,41344,9.75,72886.5,-12.19,-13.07,-13.01,0,*6B
1517299235.13,41345,9.81,72890.8,-12.17,-13.01,-12.97,0,*6C
1517299236.34,41346,9.81,72898.8,-12.17,-13.15,-13.07,0,*62
1517299237.54,41347,9.81,72900.5,-12.13,-13.15,-13.15,0,*64
1517299238.78,41348,9.81,72912.5,-12.17,-13.29,-13.43,0,*63
1517299240.02,41349,9.81,72912.0,-12.13,-13.29,-13.51,0,*65
1517299241.25,41350,9.75,72912.5,-12.13,-13.29,-13.43,0,*6E
1517299242.48,41351,9.81,72912.8,-12.13,-13.69,-13.79,0,*62
1517299243.76,41352,9.81,72910.3,-12.17,-14.01,-14.01,0,*64
1517299244.99,41353,9.81,72902.3,-12.13,-13.93,-13.97,0,*65
1517299246.23,41354,9.81,72902.5,-12.13,-14.01,-14.11,0,*67
1517299247.48,41355,9.81,72906.0,-12.17,-14.05,-14.15,0,*62
1517299248.72,41356,9.81,72906.3,-12.13,-14.37,-14.55,0,*60
1517299249.97,41357,9.81,72904.5,-12.13,-14.55,-14.89,0,*64
1517299251.24,41358,9.81,72906.0,-12.13,-14.75,-15.39,0,*63
1517299252.45,41359,9.81,72906.5,-12.17,-14.89,-15.71,0,*69
1517299253.71,41360,9.75,72898.3,-12.17,-15.21,-16.17,0,*63
1517299254.95,41361,9.81,72898.8,-12.17,-15.63,-16.51,0,*66
1517299256.19,41362,9.81,72884.0,-12.17,-15.89,-16.59,0,*69
1517299257.43,41363,9.81,72870.8,-12.17,-16.17,-16.55,0,*60
1517299258.68,41364,9.81,72864.0,-12.17,-16.03,-16.09,0,*6B
1517299259.94,41365,9.75,72852.8,-12.19,-15.99,-16.09,0,*64
1517299261.18,41366,9.75,72844.3,-12.17,-15.89,-15.95,0,*6E
1517299262.4,41367,9.81,72842.8,-12.17,-15.75,-15.63,0,*65
1517299263.66,41368,9.81,72842.8,-12.17,-15.43,-15.35,0,*6C
1517299264.89,41369,9.75,72840.0,-12.17,-15.01,-15.15,0,*69
1517299266.14,41370,9.81,72852.3,-12.19,-14.89,-14.89,0,*6A
1517299267.4,41371,9.75,72868.0,-12.19,-15.07,-14.97,0,*63
1517299268.6,41372,9.81,72880.3,-12.17,-14.69,-14.69,0,*66
1517299269.82,41373,9.81,72888.3,-12.17,-14.33,-14.33,0,*67
1517299271.09,41374,9.81,72892.3,-12.17,-14.05,-14.01,0,*64
1517299272.35,41375,9.81,72898.3,-12.17,-13.87,-13.87,0,*61
1517299273.59,41376,9.75,72904.5,-12.13,-13.51,-13.37,0,*66
1517299274.83,41377,9.81,72908.8,-12.13,-13.43,-13.37,0,*64
1517299276.07,41378,9.81,72912.3,-12.13,-13.29,-13.11,0,*63
1517299277.27,41379,9.81,72918.0,-12.09,-13.15,-13.11,0,*66
1517299278.51,41380,9.81,72918.8,-12.09,-13.37,-13.23,0,*61
1517299279.72,41381,9.81,72934.0,-12.09,-13.23,-13.11,0,*64
1517299280.95,41382,9.81,72932.5,-12.09,-13.23,-13.01,0,*66
1517299282.16,41383,9.75,72928.5,-12.09,-13.11,-13.11,0,*67
1517299283.4,41384,9.81,72926.5,-12.09,-13.37,-13.55,0,*64
1517299284.61,41385,9.81,72930.5,-12.09,-13.23,-13.51,0,*64
1517299285.81,41386,9.81,72938.3,-12.09,-13.43,-13.69,0,*6A
1517299287.05,41387,9.81,72946.8,-12.09,-13.65,-14.01,0,*66
1517299288.29,41388,9.75,72952.3,-12.07,-13.93,-14.33,0,*6F
1517299289.53,41389,9.81,72950.3,-12.05,-13.79,-14.23,0,*69
1517299290.79,41390,9.81,72940.8,-12.07,-13.79,-14.19,0,*6A
1517299292.03,41391,9.81,72952.8,-12.07,-13.73,-14.11,0,*69
1517299293.3,41392,9.81,72966.8,-12.07,-13.87,-15.11,0,*60
1517299294.54,41393,9.81,72970.3,-12.07,-14.23,-16.55,0,*6B
1517299295.8,41394,9.81,72964.8,-12.07,-15.21,-18.65,0,*62
1517299297.07,41395,9.81,72974.0,-12.07,-17.17,-21.63,0,*68
1517299298.36,41396,9.81,72974.3,-12.07,-20.15,-25.55,0,*6C
1517299299.65,41397,9.81,72970.8,-12.07,-22.31,-25.81,0,*60
1517299300.92,41398,9.81,72972.8,-12.11,-22.77,-27.03,0,*62
1517299302.19,41399,9.81,72982.5,-12.11,-26.29,-30.23,0,*68
1517299303.45,41400,9.81,72974.5,-12.13,-29.17,-30.55,0,*6E
1517299304.72,41401,9.81,72962.5,-12.19,-29.13,-29.67,0,*68
1517299305.96,41402,9.81,72972.5,-12.21,-26.97,-27.93,0,*66
1517299307.22,41403,9.81,72966.0,-12.21,-27.45,-29.29,0,*66
1517299308.52,41404,9.81,72968.0,-12.23,-28.05,-30.77,0,*6B
1517299309.81,41405,9.81,72944.8,-12.23,-29.01,-30.39,0,*65
1517299311.03,41406,9.81,72932.0,-12.29,-29.23,-27.51,0,*64
1517299312.26,41407,9.81,72946.8,-12.33,-25.61,-24.41,0,*66
1517299313.48,41408,9.81,72948.0,-12.33,-23.13,-22.83,0,*62
1517299314.69,41409,9.81,72956.8,-12.33,-22.67,-23.59,0,*67
1517299315.95,41410,9.81,72970.0,-12.39,-23.95,-23.95,0,*69
1517299317.18,41411,9.81,72968.3,-12.39,-27.29,-25.49,0,*6C
1517299318.44,41412,9.81,72962.8,-12.41,-30.67,-24.83,0,*6B
1517299319.68,41413,9.81,72938.3,-12.43,-29.17,-22.11,0,*6A
1517299320.91,41414,9.81,72922.5,-12.43,-26.17,-19.07,0,*6D
1517299322.14,41415,9.81,72900.3,-12.43,-23.09,-17.83,0,*64
1517299323.35,41416,9.81,72876.3,-12.43,-20.29,-16.75,0,*6E
1517299324.64,41417,9.81,72854.5,-12.45,-18.35,-16.23,0,*6C
1517299325.89,41418,9.81,72834.0,-12.45,-16.97,-15.75,0,*65
1517299327.19,41419,9.81,72826.0,-12.45,-16.17,-15.39,0,*64
1517299328.43,41420,9.81,72826.5,-12.45,-15.49,-15.07,0,*6B
1517299329.7,41421,9.81,72832.3,-12.45,-14.83,-14.69,0,*64
1517299330.93,41422,9.75,72816.3,-12.43,-14.75,-14.61,0,*60
1517299332.17,41423,9.81,72820.5,-12.43,-14.89,-15.01,0,*65
1517299333.42,41424,9.81,72832.0,-12.43,-15.35,-15.75,0,*67
1517299334.68,41425,9.81,72810.5,-12.45,-15.99,-16.65,0,*64
1517299335.92,41426,9.81,72810.3,-12.43,-16.37,-17.25,0,*63
1517299337.17,41427,9.81,72826.3,-12.43,-16.65,-17.35,0,*64
1517299338.41,41428,9.81,72832.8,-12.41,-17.35,-17.69,0,*64
1517299339.67,41429,9.81,72848.0,-12.43,-17.55,-17.25,0,*69
1517299340.9,41430,9.81,72860.3,-12.43,-17.25,-16.93,0,*6A
1517299342.17,41431,9.81,72860.8,-12.43,-17.03,-16.65,0,*66
1517299343.41,41432,9.75,72818.5,-12.41,-16.89,-16.59,0,*6B
1517299344.67,41433,9.81,72822.5,-12.43,-17.11,-16.65,0,*67
1517299345.93,41434,9.81,72818.5,-12.41,-16.89,-16.31,0,*63
1517299347.22,41435,9.81,72808.0,-12.41,-16.23,-15.57,0,*61
1517299348.48,41436,9.81,72800.3,-12.41,-15.75,-15.01,0,*61
1517299349.73,41437,9.81,72806.5,-12.35,-15.25,-14.89,0,*67
1517299350.97,41438,9.81,72802.5,-12.39,-15.15,-14.93,0,*6C
1517299352.26,41439,9.81,72804.3,-12.35,-14.79,-14.47,0,*63
1517299353.53,41440,9.81,72820.8,-12.35,-14.33,-14.01,0,*61
1517299354.78,41441,9.81,72832.0,-12.31,-14.37,-14.19,0,*69
1517299356.0,41442,9.81,72846.0,-12.33,-14.15,-14.15,0,*64
1517299357.25,41443,9.81,72858.3,-12.31,-14.37,-14.65,0,*60
1517299358.47,41444,9.81,72876.8,-12.29,-14.29,-14.69,0,*6D
1517299359.71,41445,9.81,72902.8,-12.29,-14.43,-14.89,0,*6E
1517299360.98,41446,9.81,72914.8,-12.27,-14.29,-14.97,0,*60
1517299362.23,41447,9.81,72924.0,-12.27,-14.19,-15.15,0,*69
1517299363.53,41448,9.81,72926.0,-12.23,-14.51,-15.81,0,*63
1517299364.8,41449,9.81,72930.0,-12.23,-14.83,-16.41,0,*62
1517299366.06,41450,9.81,72932.3,-12.23,-15.11,-17.03,0,*67
1517299367.3,41451,9.81,72936.3,-12.23,-15.71,-17.83,0,*68
1517299368.56,41452,9.81,72938.5,-12.23,-16.31,-18.69,0,*67
1517299369.82,41453,9.81,72938.3,-12.23,-17.45,-19.71,0,*6C
1517299371.07,41454,9.81,72930.3,-12.21,-18.31,-20.05,0,*6C
1517299372.29,41455,9.81,72922.5,-12.21,-19.51,-20.59,0,*63
1517299373.55,41456,9.81,72910.5,-12.21,-20.19,-20.35,0,*6C
1517299374.78,41457,9.81,72904.5,-12.21,-20.19,-19.99,0,*61
1517299376.02,41458,9.81,72884.5,-12.23,-19.91,-19.13,0,*64
1517299377.31,41459,9.81,72870.0,-12.23,-19.41,-18.35,0,*6D
1517299378.57,41460,9.81,72864.8,-12.23,-19.17,-17.93,0,*67
1517299379.82,41461,9.81,72860.8,-12.23,-18.79,-17.35,0,*63
1517299381.09,41462,9.81,72860.3,-12.23,-18.41,-17.21,0,*6E
1517299382.38,41463,9.81,72864.8,-12.23,-18.35,-17.21,0,*6C
1517299383.64,41464,9.81,72870.0,-12.23,-17.97,-17.31,0,*6D
1517299384.93,41465,9.81,72882.8,-12.23,-17.59,-17.59,0,*60
1517299386.22,41466,9.81,72886.8,-12.23,-17.59,-17.97,0,*61
1517299387.45,41467,9.81,72894.0,-12.23,-17.73,-18.49,0,*64
1517299388.68,41468,9.81,72902.0,-12.23,-18.11,-18.79,0,*63
1517299389.92,41469,9.81,72910.3,-12.23,-18.49,-19.17,0,*66
1517299391.19,41470,9.81,72910.3,-12.23,-19.31,-19.47,0,*65
1517299392.45,41471,9.81,72900.0,-12.23,-18.99,-19.27,0,*61
1517299393.72,41472,9.81,72904.3,-12.23,-18.55,-19.13,0,*65
1517299394.95,41473,9.81,72906.5,-12.23,-18.49,-19.47,0,*68
1517299396.22,41474,9.81,72912.3,-12.23,-18.79,-20.35,0,*63
1517299397.48,41475,9.81,72922.5,-12.23,-19.31,-21.73,0,*6C
1517299398.71,41476,9.81,72926.5,-12.23,-20.25,-22.87,0,*68
1517299399.98,41477,9.81,72926.5,-12.23,-21.77,-24.21,0,*65
1517299401.21,41478,9.81,72912.5,-12.23,-23.39,-24.61,0,*66
1517299402.48,41479,9.81,72912.5,-12.23,-23.33,-23.79,0,*63
1517299403.71,41480,9.81,72892.3,-12.23,-23.89,-24.51,0,*69
1517299405.0,41481,9.81,72856.5,-12.23,-24.83,-23.65,0,*65
1517299406.3,41482,9.81,72808.8,-12.27,-23.95,-22.17,0,*66
1517299407.56,41483,9.81,72780.0,-12.29,-21.83,-21.03,0,*6A
1517299408.79,41484,9.81,72714.5,-12.29,-20.89,-20.59,0,*68
1517299410.05,41485,9.81,72804.0,-12.31,-19.41,-18.99,0,*69
1517299411.35,41486,9.81,72810.3,-12.31,-18.01,-17.55,0,*60
1517299412.58,41487,9.81,72824.0,-12.31,-17.31,-16.93,0,*66
1517299413.8,41488,9.81,72828.0,-12.29,-16.37,-16.03,0,*6E
1517299415.07,41489,9.81,72832.8,-12.31,-16.09,-15.67,0,*6A
1517299416.32,41490,9.81,72840.5,-12.31,-15.75,-15.11,0,*6B
1517299417.56,41491,9.81,72838.8,-12.29,-15.49,-14.83,0,*66
1517299418.8,41492,9.81,72850.0,-12.29,-15.29,-14.75,0,*6A
1517299420.04,41493,9.81,72864.0,-12.29,-14.97,-14.29,0,*66
1517299421.33,41494,9.81,72862.3,-12.27,-14.75,-14.01,0,*69
1517299422.59,41495,9.81,72854.0,-12.27,-14.61,-13.87,0,*64
1517299423.85,41496,9.81,72854.5,-12.27,-14.69,-13.97,0,*6E
1517299425.08,41497,9.81,72852.0,-12.27,-14.29,-13.73,0,*61
1517299426.34,41498,9.81,72868.8,-12.23,-14.55,-13.93,0,*6F
1517299427.58,41499,9.81,72868.8,-12.23,-14.37,-13.65,0,*63
1517299428.82,41500,9.81,72862.3,-12.23,-14.11,-13.65,0,*66
1517299430.09,41501,9.81,72860.3,-12.23,-13.97,-13.65,0,*6E
1517299431.34,41502,9.81,72862.0,-12.23,-13.93,-13.79,0,*64
1517299432.63,41503,9.81,72862.3,-12.23,-13.97,-14.05,0,*6D
1517299433.87,41504,9.81,72866.0,-12.19,-13.93,-14.11,0,*62
1517299435.13,41505,9.81,72870.0,-12.19,-14.33,-14.51,0,*6A
1517299436.38,41506,9.81,72864.0,-12.19,-14.23,-14.61,0,*6B
1517299437.62,41507,9.81,72870.3,-12.17,-14.43,-14.89,0,*64
1517299438.87,41508,9.81,72874.8,-12.13,-14.51,-15.11,0,*6C
1517299440.12,41509,9.81,72872.8,-12.13,-14.83,-15.53,0,*64
1517299441.33,41510,9.81,72878.5,-12.13,-15.15,-15.99,0,*64
1517299442.57,41511,9.81,72876.3,-12.13,-15.53,-16.13,0,*66
1517299443.81,41512,9.81,72882.5,-12.11,-15.71,-15.99,0,*66
1517299445.07,41513,9.81,72894.8,-12.09,-15.85,-15.57,0,*67
1517299446.33,41514,9.81,72896.0,-12.09,-16.31,-16.13,0,*6F
1517299447.6,41515,9.81,72918.3,-12.11,-16.17,-16.03,0,*62
1517299448.8,41516,9.81,72942.3,-12.09,-15.99,-16.55,0,*6E
1517299450.03,41517,9.81,72956.0,-12.09,-16.03,-17.17,0,*68
1517299451.27,41518,9.81,72972.5,-12.09,-16.17,-17.69,0,*6B
1517299452.54,41519,9.81,72978.5,-12.11,-16.69,-18.73,0,*6E
1517299453.77,41520,9.81,72978.3,-12.11,-17.31,-18.65,0,*6F
1517299455.03,41521,9.81,72964.5,-12.11,-17.63,-18.65,0,*69
1517299456.29,41522,9.81,72974.8,-12.11,-22.07,-20.99,0,*66
1517299457.53,41523,9.81,72966.3,-12.11,-22.11,-18.65,0,*68
1517299458.75,41524,9.81,72956.5,-12.13,-18.99,-16.41,0,*6C
1517299460.0,41525,9.81,72938.5,-12.17,-15.89,-15.49,0,*6E
1517299461.26,41526,9.81,72908.0,-12.19,-15.49,-15.35,0,*64
1517299462.5,41527,9.81,72826.3,-12.19,-14.65,-14.33,0,*6D
1517299463.77,41528,9.81,72760.8,-12.19,-14.47,-14.19,0,*6A
1517299465.04,41529,9.81,72694.0,-12.19,-14.47,-14.23,0,*62
1517299466.32,41530,9.81,72710.3,-12.19,-14.47,-14.23,0,*6A
1517299467.59,41531,9.81,72744.3,-12.19,-14.19,-14.01,0,*60
1517299468.86,41532,9.81,72764.0,-12.17,-14.05,-14.01,0,*60
1517299470.12,41533,9.81,72788.3,-12.17,-13.87,-13.87,0,*65
1517299471.39,41534,9.81,72814.0,-12.17,-13.83,-14.05,0,*6B
1517299472.65,41535,9.81,72824.8,-12.17,-13.79,-14.43,0,*6D
1517299473.92,41536,9.81,72840.0,-12.17,-13.97,-14.83,0,*62
1517299475.18,41537,9.81,72850.5,-12.13,-14.51,-15.29,0,*6B
1517299476.39,41538,9.81,72852.0,-12.13,-15.11,-15.53,0,*6C
1517299477.61,41539,9.81,72852.8,-12.13,-15.53,-15.71,0,*6B
1517299478.87,41540,9.81,72852.0,-12.11,-15.89,-15.99,0,*66
1517299480.11,41541,9.81,72860.0,-12.11,-15.99,-15.71,0,*60
1517299481.37,41542,9.81,72866.5,-12.13,-15.81,-15.43,0,*69
1517299482.61,41543,9.81,72880.0,-12.13,-15.39,-15.11,0,*6C
1517299483.85,41544,9.81,72898.8,-12.13,-15.15,-15.01,0,*64
1517299485.06,41545,9.81,72894.8,-12.17,-14.61,-14.69,0,*6C
1517299486.3,41546,9.81,72894.3,-12.13,-14.65,-14.79,0,*6E
1517299487.54,41547,9.81,72886.8,-12.13,-14.29,-14.83,0,*62
1517299488.81,41548,9.81,72892.3,-12.17,-14.55,-15.21,0,*6B
1517299490.06,41549,9.81,72896.5,-12.17,-14.83,-15.49,0,*6F
1517299491.28,41550,9.81,72896.0,-12.17,-14.61,-15.29,0,*6D
1517299492.55,41551,9.81,72898.0,-12.13,-14.79,-15.39,0,*60
1517299493.76,41552,9.81,72898.3,-12.17,-15.15,-15.63,0,*63
1517299494.97,41553,9.81,72900.3,-12.17,-15.49,-16.03,0,*6E
1517299496.21,41554,9.81,72906.0,-12.17,-15.35,-15.75,0,*60
1517299497.44,41555,9.81,72912.3,-12.17,-15.01,-15.63,0,*61
1517299498.66,41556,9.81,72916.5,-12.17,-15.29,-15.63,0,*68
1517299499.9,41557,9.81,72922.3,-12.17,-15.35,-15.49,0,*6C
1517299501.14,41558,9.81,72966.5,-12.13,-15.39,-15.15,0,*62
1517299502.41,41559,9.81,72966.5,-12.17,-15.35,-15.21,0,*6C
1517299503.65,41560,9.81,72966.8,-12.19,-15.49,-15.53,0,*66
1517299504.94,41561,9.81,72966.3,-12.19,-15.81,-15.81,0,*6C
1517299506.21,41562,9.81,72964.3,-12.21,-15.81,-15.81,0,*64
1517299507.48,41563,9.81,72952.8,-12.19,-15.89,-15.99,0,*6F
1517299508.71,41564,9.81,72872.8,-12.21,-17.11,-16.97,0,*6D
1517299509.97,41565,9.81,72872.5,-12.23,-17.03,-16.93,0,*69
1517299511.24,41566,9.81,72862.3,-12.23,-17.97,-16.83,0,*66
1517299512.5,41567,9.81,72842.3,-12.23,-17.21,-15.67,0,*63
1517299513.79,41568,9.81,72826.8,-12.23,-15.57,-14.83,0,*64
1517299515.07,41569,9.81,72822.3,-12.23,-14.97,-14.55,0,*63
1517299516.35,41570,9.81,72810.3,-12.23,-15.01,-14.93,0,*6F
1517299517.62,41571,9.81,72800.5,-12.23,-14.51,-14.37,0,*64
1517299518.89,41572,9.81,72798.3,-12.23,-14.15,-14.05,0,*66
1517299520.19,41573,9.81,72796.5,-12.23,-13.97,-13.97,0,*66
1517299521.48,41574,9.81,72796.3,-12.23,-14.05,-13.97,0,*6D
1517299522.74,41575,9.81,72772.3,-12.23,-13.93,-13.83,0,*61
1517299524.0,41576,9.81,72812.3,-12.23,-13.97,-13.93,0,*67
1517299525.29,41577,9.81,72828.5,-12.23,-14.43,-14.43,0,*62
1517299526.53,41578,9.81,72846.8,-12.23,-14.65,-14.65,0,*6D
1517299527.75,41579,9.81,72860.5,-12.23,-13.93,-13.69,0,*69
1517299529.02,41580,9.81,72852.8,-12.23,-13.29,-13.23,0,*60
1517299530.26,41581,9.81,72864.5,-12.23,-13.11,-13.11,0,*6B
1517299531.54,41582,9.81,72882.8,-12.23,-13.29,-13.29,0,*68
1517299532.83,41583,9.81,72856.3,-12.23,-13.83,-13.83,0,*69
1517299534.04,41584,9.81,72850.8,-12.21,-13.73,-13.65,0,*6B
1517299535.31,41585,9.81,72856.3,-12.21,-13.61,-13.61,0,*6D
1517299536.57,41586,9.81,72868.5,-12.21,-13.87,-13.87,0,*6E
1517299537.82,41587,9.81,72860.0,-12.21,-13.87,-13.79,0,*6E
1517299539.06,41588,9.81,72862.3,-12.19,-14.11,-14.11,0,*6B
1517299540.31,41589,9.81,72858.3,-12.21,-14.51,-14.61,0,*62
1517299541.54,41590,9.81,72852.8,-12.21,-14.65,-14.75,0,*68
1517299542.78,41591,9.81,72860.3,-12.21,-14.93,-15.11,0,*63
1517299544.04,41592,9.81,72868.5,-12.23,-15.01,-15.25,0,*6F
1517299545.32,41593,9.81,72862.8,-12.23,-14.79,-15.01,0,*66
1517299546.61,41594,9.81,72864.3,-12.23,-14.79,-15.01,0,*61
1517299547.87,41595,9.81,72876.8,-12.23,-14.79,-15.15,0,*65
1517299549.11,41596,9.81,72880.5,-12.23,-15.25,-15.67,0,*6B
1517299550.37,41597,9.81,72914.8,-12.27,-15.07,-15.35,0,*69
1517299551.61,41598,9.81,72920.3,-12.29,-14.97,-15.07,0,*61
1517299552.87,41599,9.81,72916.8,-12.27,-14.89,-14.83,0,*6C
1517299554.11,41600,9.81,72902.5,-12.29,-15.07,-14.97,0,*63
1517299555.35,41601,9.81,72892.5,-12.27,-14.89,-14.69,0,*6A
1517299556.65,41602,9.81,72898.8,-12.27,-14.83,-14.55,0,*6C
1517299557.91,41603,9.81,72890.3,-12.29,-14.75,-14.55,0,*6A
1517299559.18,41604,9.81,72892.5,-12.29,-14.47,-14.43,0,*6B
1517299560.42,41605,9.81,72926.3,-12.29,-15.29,-15.21,0,*66
1517299561.69,41606,9.81,72934.5,-12.29,-15.35,-15.35,0,*6D
1517299562.98,41607,9.81,72928.5,-12.31,-15.35,-15.35,0,*65
1517299564.26,41608,9.81,72940.5,-12.33,-14.51,-14.51,0,*68
1517299565.48,41609,9.81,72932.3,-12.33,-14.19,-14.23,0,*60
1517299566.69,41610,9.81,72934.3,-12.33,-14.61,-14.89,0,*67
1517299567.99,41611,9.81,72902.5,-12.31,-15.39,-15.81,0,*61
1517299569.23,41612,9.81,72904.0,-12.33,-16.69,-16.97,0,*62
1517299570.48,41613,9.81,72910.8,-12.39,-17.59,-17.35,0,*62
1517299571.75,41614,9.81,72906.8,-12.39,-18.35,-17.03,0,*65
1517299572.98,41615,9.81,72882.5,-12.41,-18.11,-16.79,0,*61
1517299574.27,41616,9.81,72886.8,-12.41,-17.41,-16.31,0,*64
1517299575.51,41617,9.81,72878.5,-12.43,-16.51,-15.63,0,*63
1517299576.8,41618,9.81,72860.0,-12.41,-15.85,-14.83,0,*6B
1517299578.01,41619,9.81,72844.3,-12.43,-14.69,-14.15,0,*64
1517299579.24,41620,9.81,72830.0,-12.41,-14.33,-14.11,0,*67
1517299580.48,41621,9.81,72822.5,-12.41,-14.33,-14.15,0,*62
1517299581.74,41622,9.81,72812.0,-12.41,-14.43,-14.33,0,*62
1517299583.03,41623,9.81,72814.0,-12.41,-14.01,-14.01,0,*64
1517299584.28,41624,9.81,72838.5,-12.39,-13.97,-13.93,0,*68
1517299585.55,41625,9.81,72836.8,-12.39,-13.97,-13.97,0,*6D
1517299586.82,41626,9.81,72838.8,-12.35,-14.05,-14.11,0,*67
1517299588.03,41627,9.81,72846.3,-12.39,-14.11,-14.11,0,*6F
1517299589.27,41628,9.81,72868.5,-12.35,-13.73,-13.65,0,*6B
1517299590.53,41629,9.81,72868.3,-12.35,-13.79,-13.65,0,*60
1517299591.77,41630,9.81,72882.8,-12.39,-13.79,-13.55,0,*67
1517299593.04,41631,9.81,72888.5,-12.35,-13.61,-13.51,0,*67
1517299594.28,41632,9.81,72900.0,-12.33,-13.51,-13.37,0,*61
1517299595.55,41633,9.81,72884.8,-12.31,-13.37,-13.23,0,*67
1517299596.85,41634,9.81,72878.8,-12.31,-13.37,-13.33,0,*61
1517299598.11,41635,9.81,72882.3,-12.33,-13.37,-13.37,0,*66
1517299599.42,41636,9.81,72888.8,-12.31,-14.01,-14.01,0,*67
1517299600.69,41637,9.81,72900.0,-12.29,-13.97,-13.97,0,*6F
1517299601.96,41638,9.81,72904.0,-12.29,-13.87,-13.87,0,*60
1517299603.2,41639,9.81,72882.0,-12.29,-13.69,-13.61,0,*69
1517299604.44,41640,9.81,72872.0,-12.29,-13.83,-13.69,0,*6B
1517299605.71,41641,9.81,72866.3,-12.29,-13.87,-13.83,0,*6A
1517299607.0,41642,9.81,72852.8,-12.27,-13.83,-13.83,0,*63
1517299608.24,41643,9.81,72848.8,-12.29,-13.83,-13.73,0,*63
1517299609.46,41644,9.81,72848.5,-12.29,-13.73,-13.73,0,*6B
1517299610.7,41645,9.81,72854.8,-12.29,-13.83,-13.69,0,*6E
1517299611.99,41646,9.81,72860.3,-12.27,-13.87,-13.83,0,*63
1517299613.28,41647,9.81,72864.5,-12.27,-13.61,-13.61,0,*66
1517299614.51,41648,9.81,72872.3,-12.27,-13.69,-13.69,0,*69
1517299615.78,41649,9.81,72878.0,-12.27,-13.55,-13.61,0,*6F
1517299617.05,41650,9.81,72898.8,-12.27,-13.55,-13.61,0,*67
1517299618.31,41651,9.81,72900.0,-12.23,-13.37,-13.43,0,*66
1517299619.56,41652,9.81,72908.0,-12.23,-13.37,-13.43,0,*65
1517299620.8,41653,9.81,72912.0,-12.23,-13.43,-13.43,0,*67
1517299622.03,41654,9.81,72910.8,-12.23,-13.55,-13.65,0,*63
1517299623.3,41655,9.81,72910.8,-12.23,-13.51,-13.79,0,*6B
1517299624.55,41656,9.81,72920.8,-12.23,-13.65,-13.83,0,*6A
1517299625.81,41657,9.81,72922.3,-12.23,-13.93,-14.05,0,*6B
1517299627.08,41658,9.81,72930.8,-12.23,-14.15,-14.43,0,*6F
1517299628.32,41659,9.81,72938.3,-12.23,-14.29,-14.29,0,*6D
1517299629.56,41660,9.81,72940.0,-12.23,-14.29,-14.23,0,*6D
1517299630.8,41661,9.81,72942.8,-12.23,-14.29,-14.29,0,*66
1517299632.08,41662,9.81,72938.3,-12.23,-14.43,-14.43,0,*65
1517299633.37,41663,9.81,72938.3,-12.23,-14.55,-14.51,0,*60
1517299634.63,41664,9.81,72928.5,-12.23,-14.83,-14.69,0,*67
1517299635.89,41665,9.81,72922.8,-12.23,-15.01,-14.65,0,*61
1517299637.16,41666,9.81,72912.0,-12.23,-15.25,-14.83,0,*6C
1517299638.42,41667,9.81,72906.3,-12.21,-15.35,-14.79,0,*6B
1517299639.69,41668,9.81,72864.5,-12.23,-15.25,-14.83,0,*62
1517299640.95,41669,9.81,72838.5,-12.23,-15.25,-14.93,0,*62
1517299642.21,41670,9.81,72814.0,-12.23,-15.25,-15.01,0,*60
1517299643.49,41671,9.81,72800.5,-12.23,-14.83,-14.65,0,*6F
1517299644.75,41672,9.81,72796.3,-12.23,-14.83,-14.69,0,*60
1517299646.01,41673,9.81,72806.0,-12.23,-14.93,-14.65,0,*6C
1517299647.28,41674,9.81,72814.5,-12.23,-14.83,-14.65,0,*6A
1517299648.49,41675,9.81,72820.8,-12.29,-14.29,-14.11,0,*62
1517299649.78,41676,9.81,72828.5,-12.27,-14.01,-13.83,0,*69
1517299651.02,41677,9.81,72850.8,-12.27,-13.73,-13.55,0,*61
1517299652.29,41678,9.81,72864.5,-12.23,-13.69,-13.37,0,*65
1517299653.55,41679,9.81,72876.5,-12.23,-13.29,-13.15,0,*60
1517299654.78,41680,9.81,72876.5,-12.23,-13.15,-13.07,0,*6A
1517299656.04,41681,9.81,72886.5,-12.21,-13.01,-12.75,0,*68
1517299657.34,41682,9.81,72880.5,-12.19,-13.01,-12.75,0,*60
1517299658.58,41683,9.81,72878.0,-12.19,-13.07,-12.93,0,*6F
1517299659.82,41684,9.81,72880.5,-12.17,-13.01,-12.89,0,*6B
1517299661.06,41685,9.81,72884.8,-12.17,-13.01,-12.97,0,*65
1517299662.32,41686,9.81,72914.0,-12.17,-13.01,-13.01,0,*68
1517299663.54,41687,9.81,72912.0,-12.13,-12.93,-12.89,0,*66
1517299664.75,41688,9.81,72918.3,-12.17,-13.07,-13.11,0,*61
1517299665.99,41689,9.81,72936.0,-12.13,-13.23,-13.37,0,*66
1517299667.23,41690,9.81,72928.0,-12.17,-13.69,-13.83,0,*6B
1517299668.46,41691,9.81,72946.0,-12.13,-13.55,-13.83,0,*61
1517299669.7,41692,9.81,72962.3,-12.17,-13.73,-14.05,0,*6B
1517299670.97,41693,9.81,72954.8,-12.13,-13.83,-14.51,0,*60
1517299672.24,41694,9.81,72956.8,-12.13,-14.83,-15.57,0,*67
1517299673.49,41695,9.81,72964.5,-12.13,-15.53,-16.17,0,*6D
1517299674.73,41696,9.81,72966.3,-12.17,-15.71,-16.09,0,*65
1517299675.94,41697,9.81,72952.3,-12.17,-16.45,-16.37,0,*6D
1517299677.18,41698,9.81,72938.8,-12.13,-16.27,-16.03,0,*65
1517299678.42,41699,9.81,72958.8,-12.17,-16.23,-15.95,0,*68
1517299679.7,41700,9.81,72936.8,-12.19,-15.89,-15.49,0,*65
1517299680.96,41701,9.81,72928.8,-12.19,-15.75,-15.35,0,*6C
1517299682.2,41702,9.81,72916.0,-12.19,-15.53,-15.07,0,*6A
1517299683.42,41703,9.81,72910.5,-12.21,-15.49,-15.11,0,*6C
1517299684.68,41704,9.81,72906.3,-12.19,-15.49,-15.35,0,*66
1517299685.94,41705,9.81,72868.5,-12.21,-14.93,-14.93,0,*67
1517299687.21,41706,9.81,72840.3,-12.21,-15.39,-15.39,0,*64
1517299688.5,41707,9.81,72816.5,-12.23,-15.57,-15.43,0,*62
1517299689.76,41708,9.81,72818.3,-12.23,-15.71,-15.57,0,*6C
1517299691.03,41709,9.81,72836.8,-12.23,-15.53,-15.39,0,*65
1517299692.3,41710,9.81,72842.8,-12.23,-15.25,-15.01,0,*67
1517299693.58,41711,9.81,72850.3,-12.23,-14.93,-14.79,0,*64
1517299694.87,41712,9.81,72862.8,-12.23,-14.79,-14.55,0,*6D
1517299696.11,41713,9.81,72882.5,-12.23,-14.29,-14.29,0,*62
1517299697.35,41714,9.81,72894.8,-12.27,-15.15,-15.15,0,*61
1517299698.64,41715,9.81,72892.5,-12.27,-14.47,-14.43,0,*64
1517299699.88,41716,9.81,72896.3,-12.27,-14.11,-14.11,0,*63